Starlink 34104

operational
NORAD ID: 64102 Int'l Des: 2025-110 Owner: SPXS Country: US Constellation: starlink
LEOCIRCULAR

Starlink 34104について

説明を読み込み中...

リアルタイム位置

3D地球を読み込み中...

次回通過

高度履歴

Altitude vs Time

uPlot chart will show altitude changes over time

軌道要素

1 64102U 25110G 25260.88272407 .00038449 00000-0 96606-3 0 9993
2 64102 53.1571 113.0826 0000706 88.7966 271.3119 15.39629676 19373
Epoch: Sep 17, 2025 • Age: 29 hours

現在のステータス

高度 464.6 km
速度 7.63 km/s
衛星直下点 -50.06°S, 42.85°W
打ち上げ日 May 23, 2025
運用期間 0.3 years
タイプ internet

技術仕様

分類 Payload
質量 575.00 kg
乾燥質量 530.00 kg
総質量 575.00 kg
長さ 0.30 m
直径 4.10 m
スパン 29.00 m
形状 Box + pan
製造者 SPXS
バスタイプ Starlink V2MO
フェーズステータス In Orbit
所有者/国 SPXS/US

大規模コンステレーション

Loading constellations...